When you browse on this site, cookies collect data to enhance your experience and personalize the content and advertising you see.
Visit our Privacy Policy to learn more. By continuing to use the site, you agree to this use of cookies and data.
  • în România
  • Lista ţărilor
  • Pe 7 zile
  • Temperatura apei
  • Meteo pe hartă
  • Widget-uri
  • user-avatar
    Intrare

    Meteo pe oră la Palma de Mallorca

    Astăzi, 17 Noiembrie, Duminică

    Timp Temperatura Precipitaţii Vânt Presiune Umiditate
    00:00 +11°C° 0 mm 10 m/s 756 mmHg 63%
    01:00 +11°C° 0 mm 10 m/s 756 mmHg 63%
    02:00 +11°C° 0 mm 9 m/s 755 mmHg 63%
    03:00 +11°C° 0 mm 9 m/s 755 mmHg 63%
    04:00 +11°C° 0 mm 8 m/s 755 mmHg 64%
    05:00 +10°C° 0 mm 8 m/s 755 mmHg 64%
    06:00 +10°C° 0 mm 6 m/s 756 mmHg 65%
    07:00 +11°C° 0 mm 7 m/s 756 mmHg 62%
    08:00 +12°C° 0 mm 7 m/s 756 mmHg 58%
    09:00 +14°C° 0 mm 7 m/s 756 mmHg 55%
    10:00 +14°C° 0 mm 7 m/s 756 mmHg 55%
    11:00 +15°C° 0 mm 7 m/s 756 mmHg 56%
    12:00 +15°C° 0 mm 8 m/s 756 mmHg 57%
    13:00 +15°C° 0 mm 8 m/s 756 mmHg 58%
    14:00 +13°C° 0 mm 8 m/s 756 mmHg 59%
    15:00 +13°C° 0 mm 8 m/s 755 mmHg 60%
    16:00 +13°C° 0 mm 8 m/s 755 mmHg 63%
    17:00 +12°C° 0 mm 8 m/s 755 mmHg 65%
    18:00 +12°C° 0 mm 7 m/s 755 mmHg 67%
    19:00 +12°C° 0 mm 7 m/s 755 mmHg 71%
    20:00 +12°C° 0 mm 7 m/s 755 mmHg 74%
    21:00 +12°C° 0 mm 7 m/s 755 mmHg 78%
    22:00 +13°C° 0.2 mm 6 m/s 755 mmHg 78%
    23:00 +13°C° 0.2 mm 6 m/s 754 mmHg 78%

    Mâine, 18 Noiembrie, Luni

    Timp Temperatura Precipitaţii Vânt Presiune Umiditate
    00:00 +14°C° 0.2 mm 5 m/s 754 mmHg 78%
    01:00 +13°C° 1.2 mm 5 m/s 753 mmHg 82%
    02:00 +13°C° 1.2 mm 5 m/s 753 mmHg 86%
    03:00 +12°C° 1.2 mm 4 m/s 752 mmHg 91%
    04:00 +12°C° 2.5 mm 5 m/s 752 mmHg 89%
    05:00 +12°C° 2.5 mm 5 m/s 752 mmHg 88%
    06:00 +10°C° 2.5 mm 5 m/s 752 mmHg 87%
    07:00 +10°C° 1.4 mm 5 m/s 752 mmHg 87%
    08:00 +10°C° 1.4 mm 5 m/s 753 mmHg 87%
    09:00 +10°C° 1.4 mm 5 m/s 753 mmHg 86%
    10:00 +10°C° 0.6 mm 5 m/s 753 mmHg 83%
    11:00 +12°C° 0.6 mm 5 m/s 754 mmHg 79%
    12:00 +12°C° 0.6 mm 4 m/s 754 mmHg 75%
    13:00 +12°C° 0.4 mm 5 m/s 754 mmHg 74%
    14:00 +11°C° 0.4 mm 6 m/s 754 mmHg 73%
    15:00 +11°C° 0.4 mm 6 m/s 755 mmHg 71%
    16:00 +10°C° 0 mm 5 m/s 755 mmHg 72%
    17:00 +11°C° 0 mm 4 m/s 756 mmHg 74%
    18:00 +10°C° 0 mm 3 m/s 756 mmHg 75%
    19:00 +10°C° 0 mm 2 m/s 757 mmHg 74%
    20:00 +10°C° 0 mm 2 m/s 757 mmHg 73%
    21:00 +10°C° 0 mm 2 m/s 758 mmHg 72%
    22:00 +10°C° 0.1 mm 3 m/s 758 mmHg 72%
    23:00 +10°C° 0.1 mm 4 m/s 758 mmHg 72%

    Poimâine, 19 Noiembrie, Marţi

    Timp Temperatura Precipitaţii Vânt Presiune Umiditate
    00:00 +10°C° 0.1 mm 5 m/s 758 mmHg 71%
    01:00 +10°C° 0 mm 5 m/s 758 mmHg 72%
    02:00 +9°C° 0 mm 5 m/s 758 mmHg 73%
    03:00 +9°C° 0 mm 5 m/s 758 mmHg 74%
    04:00 +9°C° 0 mm 5 m/s 758 mmHg 75%
    05:00 +9°C° 0 mm 5 m/s 758 mmHg 76%
    06:00 +8°C° 0 mm 5 m/s 758 mmHg 77%
    07:00 +9°C° 0 mm 5 m/s 759 mmHg 74%
    08:00 +10°C° 0 mm 6 m/s 759 mmHg 71%
    09:00 +11°C° 0 mm 6 m/s 760 mmHg 68%
    10:00 +13°C° 0 mm 6 m/s 760 mmHg 65%
    11:00 +13°C° 0 mm 5 m/s 760 mmHg 61%
    12:00 +14°C° 0 mm 4 m/s 760 mmHg 58%
    13:00 +14°C° 0 mm 4 m/s 760 mmHg 58%
    14:00 +14°C° 0 mm 3 m/s 760 mmHg 58%
    15:00 +14°C° 0 mm 3 m/s 760 mmHg 57%
    16:00 +13°C° 0 mm 3 m/s 760 mmHg 61%
    17:00 +11°C° 0 mm 3 m/s 760 mmHg 64%
    18:00 +10°C° 0 mm 2 m/s 760 mmHg 67%
    19:00 +10°C° 0 mm 2 m/s 760 mmHg 67%
    20:00 +10°C° 0 mm 2 m/s 760 mmHg 66%
    21:00 +10°C° 0 mm 2 m/s 761 mmHg 66%
    22:00 +10°C° 0 mm 2 m/s 761 mmHg 66%
    23:00 +10°C° 0 mm 2 m/s 760 mmHg 66%

    20 Noiembrie, Miercuri

    Timp Temperatura Precipitaţii Vânt Presiune Umiditate
    00:00 +10°C° 0 mm 2 m/s 760 mmHg 66%
    01:00 +10°C° 0 mm 2 m/s 760 mmHg 67%
    02:00 +10°C° 0 mm 2 m/s 759 mmHg 68%
    03:00 +10°C° 0 mm 2 m/s 759 mmHg 69%
    04:00 +10°C° 0 mm 2 m/s 759 mmHg 70%
    05:00 +12°C° 0 mm 2 m/s 759 mmHg 71%
    06:00 +11°C° 0 mm 3 m/s 759 mmHg 71%
    07:00 +12°C° 0.1 mm 3 m/s 759 mmHg 71%
    08:00 +13°C° 0.1 mm 3 m/s 759 mmHg 70%
    09:00 +13°C° 0.1 mm 4 m/s 759 mmHg 70%
    10:00 +14°C° 0.2 mm 4 m/s 759 mmHg 68%
    11:00 +15°C° 0.2 mm 5 m/s 758 mmHg 67%
    12:00 +15°C° 0.2 mm 6 m/s 758 mmHg 65%
    13:00 +15°C° 0.2 mm 6 m/s 758 mmHg 66%
    14:00 +15°C° 0.2 mm 6 m/s 757 mmHg 68%
    15:00 +15°C° 0.2 mm 6 m/s 757 mmHg 69%
    16:00 +14°C° 0 mm 6 m/s 757 mmHg 72%
    17:00 +13°C° 0 mm 5 m/s 757 mmHg 75%
    18:00 +13°C° 0 mm 5 m/s 757 mmHg 78%
    19:00 +13°C° 0 mm 5 m/s 757 mmHg 78%
    20:00 +13°C° 0 mm 5 m/s 757 mmHg 79%
    21:00 +13°C° 0 mm 4 m/s 757 mmHg 79%
    22:00 +13°C° 0 mm 4 m/s 757 mmHg 79%
    23:00 +13°C° 0 mm 5 m/s 757 mmHg 79%

    21 Noiembrie, Joi

    Timp Temperatura Precipitaţii Vânt Presiune Umiditate
    00:00 +13°C° 0 mm 5 m/s 756 mmHg 80%
    01:00 +13°C° 0.1 mm 5 m/s 756 mmHg 81%
    02:00 +13°C° 0.1 mm 5 m/s 756 mmHg 83%
    03:00 +13°C° 0.1 mm 5 m/s 756 mmHg 85%
    04:00 +13°C° 0.2 mm 5 m/s 755 mmHg 85%
    05:00 +14°C° 0.2 mm 6 m/s 755 mmHg 85%
    06:00 +14°C° 0.2 mm 6 m/s 755 mmHg 85%
    07:00 +14°C° 0.5 mm 6 m/s 755 mmHg 83%
    08:00 +15°C° 0.5 mm 6 m/s 755 mmHg 80%
    09:00 +16°C° 0.5 mm 7 m/s 755 mmHg 78%
    10:00 +16°C° 0.2 mm 7 m/s 755 mmHg 76%
    11:00 +17°C° 0.2 mm 7 m/s 755 mmHg 73%
    12:00 +17°C° 0.2 mm 8 m/s 755 mmHg 71%
    13:00 +17°C° 0.2 mm 7 m/s 755 mmHg 73%
    14:00 +17°C° 0.2 mm 7 m/s 754 mmHg 75%
    15:00 +17°C° 0.2 mm 6 m/s 754 mmHg 77%
    16:00 +16°C° 0.5 mm 6 m/s 754 mmHg 79%
    17:00 +16°C° 0.5 mm 6 m/s 754 mmHg 81%
    18:00 +15°C° 0.5 mm 6 m/s 754 mmHg 84%
    19:00 +15°C° 0.5 mm 6 m/s 754 mmHg 84%
    20:00 +15°C° 0.5 mm 6 m/s 754 mmHg 84%
    21:00 +15°C° 0.5 mm 6 m/s 754 mmHg 84%
    22:00 +15°C° 0.2 mm 6 m/s 754 mmHg 84%
    23:00 +15°C° 0.2 mm 6 m/s 754 mmHg 84%

    22 Noiembrie, Vineri

    Timp Temperatura Precipitaţii Vânt Presiune Umiditate
    00:00 +15°C° 0.2 mm 6 m/s 754 mmHg 83%
    01:00 +15°C° 0.2 mm 6 m/s 753 mmHg 83%
    02:00 +15°C° 0.2 mm 6 m/s 753 mmHg 82%
    03:00 +15°C° 0.2 mm 6 m/s 752 mmHg 81%
    04:00 +15°C° 0.1 mm 6 m/s 752 mmHg 80%
    05:00 +16°C° 0.1 mm 6 m/s 752 mmHg 80%
    06:00 +16°C° 0.1 mm 6 m/s 751 mmHg 79%
    07:00 +16°C° 0.2 mm 5 m/s 751 mmHg 78%
    08:00 +16°C° 0.2 mm 5 m/s 751 mmHg 77%
    09:00 +16°C° 0.2 mm 5 m/s 751 mmHg 77%
    10:00 +16°C° 0.2 mm 5 m/s 751 mmHg 73%
    11:00 +17°C° 0.2 mm 5 m/s 751 mmHg 70%
    12:00 +17°C° 0.2 mm 5 m/s 751 mmHg 67%
    13:00 +15°C° 2.6 mm 6 m/s 750 mmHg 75%
    14:00 +14°C° 2.6 mm 6 m/s 750 mmHg 83%
    15:00 +13°C° 2.6 mm 6 m/s 750 mmHg 91%
    16:00 +12°C° 2.4 mm 5 m/s 750 mmHg 90%
    17:00 +12°C° 2.4 mm 4 m/s 751 mmHg 89%
    18:00 +12°C° 2.4 mm 4 m/s 751 mmHg 88%
    19:00 +11°C° 0 mm 3 m/s 752 mmHg 87%
    20:00 +11°C° 0 mm 3 m/s 752 mmHg 85%
    21:00 +11°C° 0 mm 3 m/s 753 mmHg 84%
    22:00 +11°C° 0.1 mm 3 m/s 753 mmHg 83%
    23:00 +11°C° 0.1 mm 3 m/s 753 mmHg 81%
    Arată mai mult